[[{"header":{"parameterUnit":"m.s-1","parameterCategory":1,"la1":30.2991,"la2":30.254,"lo1":-89.0895,"lo2":-89.0444,"dy":0.0017,"dx":0.0017,"nx":28,"ny":28,"refTime":"2024-03-31T09:00:00:Z","depth":0,"parameterNumber":2,"parameterNumberName":"U-component_of_WINDS"},"data":[0,0,0,0,0,0,0,0,0,0,0,0,0,0,0,0,0,0,0,0,0,0,0,0,0,0,0,0,0,0,0,0,0,0,0,0,0,0,0,0,0,0,0,0,0,0,0,0,0,0,0,0,0,0,0,0,0,0,-3.014,-3.014,0,-3.0155,-3.0155,-3.0155,-3.0099,-3.0098,-3.0096,-3.0095,-3.011,-3.0112,-3.0114,0,0,0,0,0,0,0,0,0,0,0,0,0,-3.0067,-3.0068,-3.014,-3.014,-3.014,-3.0155,-3.0155,-3.0155,-3.01,-3.0098,-3.0096,-3.0094,-3.011,-3.0112,-3.0114,0,0,0,0,0,0,0,0,0,0,0,0,0,-3.0092,-3.0069,-3.014,-3.0114,-3.0112,-3.0155,-3.0155,-3.0155,-3.01,-3.0098,-3.0095,-3.0093,-3.0109,-3.0112,-3.0115,-3.0182,0,0,-3.0123,-3.0125,0,0,0,0,0,0,0,0,-3.009,-3.0094,-3.0118,-3.0116,-3.0114,-3.0123,-3.0135,-3.0164,-3.0101,-3.0105,-3.0095,-3.0092,-3.0116,-3.0119,-3.0127,-3.0183,-3.0184,-3.0124,-3.0126,-3.0127,-3.0128,0,0,0,0,0,0,0,-3.0089,-3.0093,-3.0146,-3.0118,-3.0116,-3.0103,-3.0104,-3.014,-3.0124,-3.0104,-3.01,-3.0103,-3.0115,-3.0124,-3.0127,-3.0184,-3.0124,-3.0126,-3.0128,-3.0129,-3.0299,-3.0301,0,0,0,0,0,0,-3.009,-3.0092,-3.0145,-3.0146,-3.0096,-3.0107,-3.0107,-3.0122,-3.0124,-3.0122,-3.0105,-3.01,-3.012,-3.0123,-3.0127,-3.0207,-3.0127,-3.013,-3.0131,-3.0296,-3.0299,-3.0302,0,0,0,0,0,0,-3.0089,-3.0095,-3.0145,-3.0118,-3.0124,-3.011,-3.0128,-3.0124,-3.0133,-3.0124,-3.0121,-3.0117,-3.0118,-3.0123,-3.0169,-3.0206,-3.0131,-3.0134,-3.0293,-3.0297,-3.0301,-3.0367,0,0,0,0,0,0,-3.0087,-3.0095,-3.012,-3.0119,-3.0125,-3.0186,-3.013,-3.0126,-3.0138,-3.0132,-3.0135,-3.0133,-3.0117,-3.0165,-3.0172,-3.0209,-3.0136,-3.0289,-3.0295,-3.0299,-3.0361,-3.0372,-3.0382,0,0,0,0,0,-3.0084,-3.0137,-3.0121,-3.0128,-3.0156,-3.0188,-3.0192,-3.0172,-3.0141,-3.0167,-3.0162,-3.0133,-3.0202,-3.017,-3.0178,-3.0216,-3.0287,-3.0293,-3.0299,-3.0356,-3.037,-3.0382,0,0,0,0,0,0,-3.0142,-3.0137,-3.0119,-3.0173,-3.0182,-3.0179,-3.0209,-3.0187,-3.0204,-3.0198,-3.0173,-3.0175,-3.0225,-3.0226,-3.0191,-3.0283,-3.0239,-3.0247,-3.028,-3.0293,-3.0304,-3.0302,-3.0138,0,0,0,0,0,-3.0161,-3.0187,-3.0182,-3.0231,-3.0236,-3.0223,-3.0236,-3.022,-3.0228,-3.0231,-3.0229,-3.0238,-3.0262,-3.0278,-3.03,-3.0362,-3.0362,-3.0392,-3.0403,-3.0412,-3.0418,-3.0452,-3.0466,-3.0322,-3.0322,-3.0322,0,0,-3.0201,-3.0201,-3.0219,-3.0242,-3.0247,-3.0275,-3.0226,-3.0257,-3.0278,-3.0236,-3.0279,-3.0279,-3.0288,-3.0343,-3.0367,-3.0345,-3.0459,-3.042,-3.0427,-3.0428,-3.046,-3.0473,-3.0486,-3.0327,-3.0326,-3.0325,0,0,-3.0286,-3.029,-3.0331,-3.0337,-3.0346,-3.0337,-3.0347,-3.0349,-3.0347,-3.039,-3.036,-3.0385,-3.0427,-3.0434,-3.0444,-3.0537,-3.0512,-3.0545,-3.06,-3.0633,-3.0644,-3.0654,-3.0687,-3.0699,-3.0552,-3.0553,-3.0553,0,-3.0334,-3.0375,-3.0355,-3.0389,-3.0401,-3.0366,-3.0408,-3.0415,-3.043,-3.0439,-3.0415,-3.0467,-3.0471,-3.0527,-3.0551,-3.056,-3.0571,-3.0543,-3.0644,-3.0654,-3.0663,-3.0694,-3.0707,-3.0556,-3.0556,-3.0556,-3.0555,0,-3.0434,-3.0463,-3.0496,-3.0511,-3.0527,-3.0565,-3.0552,-3.057,-3.0555,-3.055,-3.0596,-3.0599,-3.0621,-3.0634,-3.0619,-3.069,-3.0675,-3.0649,-3.0603,-3.0681,-3.071,-3.0721,-3.0562,-3.0561,-3.0559,-3.0559,0,0,-3.0552,-3.0559,-3.0571,-3.0578,-3.0587,-3.0609,-3.0648,-3.0669,-3.0686,-3.0699,-3.073,-3.0768,-3.0743,-3.0754,-3.0741,-3.077,-3.0844,-3.0739,-3.0739,-3.0758,-3.0922,-3.0941,-3.0955,-3.0829,-3.0831,-3.0833,-3.0921,0,-3.0636,-3.0699,-3.0684,-3.0747,-3.0775,-3.0744,-3.0777,-3.0786,-3.0783,-3.0807,-3.0804,-3.0831,-3.0797,-3.0804,-3.0832,-3.0829,-3.0877,-3.0823,-3.0857,-3.0859,-3.0853,-3.097,-3.099,-3.1073,-3.0933,-3.0934,-3.0936,0,-3.0741,-3.0758,-3.0824,-3.083,-3.0841,-3.0871,-3.0891,-3.0914,-3.0925,-3.0921,-3.0935,-3.0916,-3.0955,-3.0913,-3.0966,-3.093,-3.0944,-3.0945,-3.0948,-3.0948,-3.09,-3.0973,-3.1099,-3.1111,-3.0953,-3.0952,-3.0951,0,-3.082,-3.086,-3.0905,-3.0913,-3.0921,-3.0943,-3.0947,-3.0956,-3.0971,-3.0989,-3.0999,-3.1022,-3.1034,-3.1053,-3.1041,-3.1011,-3.1097,-3.1053,-3.1094,-3.1095,-3.1111,-3.111,-3.124,-3.1124,-3.1124,-3.1124,-3.1123,0,-3.0913,-3.0955,-3.0941,-3.0968,-3.1014,-3.0998,-3.1045,-3.1046,-3.1055,-3.1082,-3.1058,-3.1085,-3.1069,-3.1096,-3.1087,-3.1133,-3.1139,-3.1137,-3.1134,-3.1138,-3.1138,-3.1145,-3.1138,-3.1127,-3.1126,-3.1126,-3.1125,0,-3.1007,-3.1,-3.1047,-3.1052,-3.1054,-3.1088,-3.1092,-3.1119,-3.1115,-3.1151,-3.1159,-3.1154,-3.1184,-3.1175,-3.1207,-3.1202,-3.126,-3.125,-3.1255,-3.1252,-3.1294,-3.129,-3.1431,-3.1449,-3.1323,-3.1324,-3.1325,0,-3.1066,-3.1098,-3.1107,-3.1124,-3.113,-3.1158,-3.1173,-3.116,-3.1177,-3.1194,-3.1219,-3.1247,-3.1268,-3.1318,-3.1317,-3.1342,-3.1332,-3.1381,-3.1336,-3.1339,-3.1332,-3.1329,-3.1332,-3.1388,-3.139,-3.1391,-3.1392,0,-3.1172,-3.1167,-3.119,-3.1213,-3.1233,-3.125,-3.1265,-3.1281,-3.1269,-3.129,-3.132,-3.1337,-3.1371,-3.1399,-3.1423,-3.1429,-3.1409,-3.1407,-3.1417,-3.142,-3.1422,-3.1421,-3.1278,-3.1403,-3.1402,-3.1401,-3.14,-3.14,-3.1249,-3.1276,-3.1287,-3.1314,-3.1325,-3.134,-3.1365,-3.1366,-3.1391,-3.1417,-3.1409,-3.1444,-3.1457,-3.1487,-3.1496,-3.1524,-3.1505,-3.1521,-3.1525,-3.1528,-3.1533,-3.142,-3.1528,-3.1528,-3.1528,-3.1527,-3.1527,0,-3.1353,-3.1359,-3.1384,-3.1407,-3.1429,-3.141,-3.1426,-3.1446,-3.1477,-3.1491,-3.1513,-3.1549,-3.1577,-3.1581,-3.1607,-3.1629,-3.1621,-3.1637,-3.1634,-3.1635,-3.1548,-3.1536,-3.1643,-3.1643,-3.1643,-3.1643,-3.1643,-3.1643,-3.1409,-3.1453,-3.145,-3.1501,-3.1507,-3.1541,-3.1552,-3.1567,-3.1578,-3.1619,-3.1642,-3.1645,-3.1655,-3.1683,-3.1708,-3.1709,-3.1719,-3.1738,-3.1735,-3.1653,-3.1641,-3.163,-3.1618,-3.1741,-3.1741,-3.182,-3.182,-3.1821]},{"header":{"parameterUnit":"m.s-1","parameterCategory":1,"la1":30.2991,"la2":30.254,"lo1":-89.0895,"lo2":-89.0444,"dy":0.0017,"dx":0.0017,"nx":28,"ny":28,"refTime":"2024-03-31T09:00:00:Z","depth":0,"parameterNumber":3,"parameterNumberName":"V-component_of_WINDS"},"data":[0,0,0,0,0,0,0,0,0,0,0,0,0,0,0,0,0,0,0,0,0,0,0,0,0,0,0,0,0,0,0,0,0,0,0,0,0,0,0,0,0,0,0,0,0,0,0,0,0,0,0,0,0,0,0,0,0,0,2.9691,2.9692,0,2.9758,2.9758,2.9759,2.984,2.9842,2.9843,2.9844,2.9907,2.9907,2.9908,0,0,0,0,0,0,0,0,0,0,0,0,0,2.9631,2.9631,2.9691,2.9692,2.9693,2.9757,2.9758,2.9759,2.984,2.9842,2.9843,2.9845,2.9907,2.9907,2.9908,0,0,0,0,0,0,0,0,0,0,0,0,0,2.9673,2.9632,2.9691,2.9741,2.9746,2.9757,2.9758,2.976,2.984,2.9842,2.9844,2.9846,2.9907,2.9907,2.9908,2.9873,0,0,2.991,2.991,0,0,0,0,0,0,0,0,2.967,2.9675,2.9733,2.9738,2.9744,2.9793,2.976,2.9798,2.9839,2.9804,2.9844,2.9846,2.9867,2.9871,2.9879,2.9876,2.9879,2.991,2.9911,2.9911,2.9911,0,0,0,0,0,0,0,2.9667,2.9672,2.9717,2.9734,2.974,2.9759,2.9767,2.9768,2.9824,2.9807,2.9813,2.982,2.987,2.9878,2.9881,2.988,2.991,2.9911,2.9911,2.9911,2.9854,2.9852,0,0,0,0,0,0,2.9657,2.9669,2.9715,2.9719,2.9711,2.9758,2.9768,2.9775,2.9824,2.9833,2.9819,2.9824,2.9876,2.988,2.9884,2.9848,2.9911,2.9912,2.9912,2.9856,2.9853,2.9851,0,0,0,0,0,0,2.9656,2.9661,2.9713,2.9696,2.9704,2.9758,2.9765,2.9775,2.9784,2.9833,2.9843,2.9817,2.9878,2.9883,2.9876,2.9851,2.9912,2.9913,2.9858,2.9855,2.9852,2.9775,0,0,0,0,0,0,2.9654,2.966,2.9648,2.9695,2.9705,2.9705,2.9764,2.9775,2.9785,2.9793,2.9834,2.9842,2.988,2.9875,2.9877,2.9853,2.9913,2.986,2.9857,2.9853,2.978,2.977,2.9761,0,0,0,0,0,2.9651,2.9622,2.9647,2.9652,2.9692,2.9703,2.9709,2.9754,2.9783,2.9771,2.9803,2.9841,2.9853,2.9873,2.9876,2.9853,2.9862,2.9858,2.9853,2.9785,2.9772,2.9762,0,0,0,0,0,0,2.9569,2.9629,2.9657,2.9643,2.9668,2.9717,2.9704,2.9739,2.9754,2.9761,2.9814,2.9823,2.981,2.9831,2.9852,2.9823,2.9863,2.9859,2.981,2.9799,2.9789,2.9785,2.9914,0,0,0,0,0,2.9549,2.9555,2.9607,2.9589,2.96,2.965,2.9656,2.9689,2.9716,2.9726,2.9758,2.9781,2.9791,2.9795,2.9807,2.9783,2.9794,2.9768,2.9759,2.9751,2.9747,2.9737,2.9727,2.9837,2.9837,2.9837,0,0,2.9508,2.9542,2.9542,2.9574,2.9597,2.9601,2.9658,2.9659,2.9663,2.9726,2.9723,2.9746,2.9776,2.9761,2.9756,2.9778,2.9719,2.9745,2.9739,2.9739,2.9732,2.9721,2.9712,2.9834,2.9834,2.9835,0,0,2.9436,2.9462,2.9451,2.9473,2.9508,2.9541,2.9538,2.9583,2.9602,2.9599,2.9648,2.9651,2.9666,2.9686,2.9697,2.9633,2.9669,2.9635,2.9586,2.9576,2.9567,2.956,2.9538,2.953,2.9631,2.9631,2.9631,0,2.938,2.939,2.944,2.944,2.9452,2.9512,2.9501,2.9519,2.9555,2.9562,2.9586,2.9607,2.963,2.9622,2.9606,2.9613,2.9612,2.9631,2.9565,2.9558,2.9552,2.9532,2.9523,2.9627,2.9627,2.9627,2.9628,0,2.932,2.9326,2.9313,2.9349,2.9359,2.9353,2.9402,2.9406,2.9438,2.9468,2.9465,2.9496,2.9515,2.9515,2.9545,2.9511,2.9524,2.9555,2.9598,2.9536,2.9518,2.9511,2.962,2.9622,2.9623,2.9624,0,0,2.9198,2.9263,2.9257,2.9275,2.9318,2.9323,2.9319,2.934,2.9343,2.9365,2.9363,2.9375,2.9405,2.9418,2.9451,2.9442,2.9391,2.9475,2.9477,2.9459,2.9356,2.9333,2.9323,2.9414,2.9413,2.9412,2.9354,0,2.9135,2.9135,2.9181,2.9167,2.9173,2.923,2.9227,2.9252,2.928,2.9288,2.9318,2.9326,2.9365,2.9374,2.9367,2.9398,2.9371,2.9403,2.9413,2.9413,2.9405,2.9313,2.9289,2.9232,2.9347,2.9346,2.9345,0,2.9062,2.9083,2.907,2.9115,2.912,2.9116,2.9139,2.9147,2.9176,2.9197,2.9212,2.925,2.9249,2.9288,2.9287,2.9308,2.9314,2.933,2.9329,2.9333,2.9376,2.9316,2.9215,2.9207,2.9334,2.9335,2.9336,0,2.8976,2.9,2.8997,2.901,2.9061,2.9058,2.9079,2.9111,2.912,2.914,2.9147,2.9165,2.9175,2.9187,2.9229,2.9253,2.9223,2.9265,2.924,2.9239,2.9232,2.9232,2.9132,2.9233,2.9233,2.9234,2.9234,0,2.8902,2.8892,2.896,2.8957,2.8948,2.9,2.8989,2.9015,2.9043,2.9046,2.9094,2.9096,2.915,2.9157,2.9189,2.9184,2.9187,2.9204,2.9213,2.9201,2.9199,2.9206,2.9212,2.9231,2.9232,2.9232,2.9233,0,2.8805,2.885,2.885,2.8899,2.8911,2.8902,2.8944,2.8944,2.8975,2.8978,2.8982,2.903,2.9041,2.9084,2.9104,2.9126,2.911,2.9126,2.9101,2.9107,2.908,2.9082,2.8983,2.8973,2.9078,2.9077,2.9076,0,2.8756,2.875,2.88,2.8806,2.8826,2.8835,2.8846,2.8896,2.8905,2.8939,2.8934,2.895,2.8965,2.898,2.9016,2.9032,2.905,2.9014,2.9053,2.9041,2.9051,2.9051,2.9051,2.9006,2.9004,2.9003,2.9002,0,2.8663,2.8686,2.8701,2.8724,2.8736,2.8756,2.8778,2.878,2.8836,2.8843,2.8857,2.8869,2.8891,2.8905,2.8928,2.8948,2.8984,2.899,2.8985,2.8973,2.8959,2.8968,2.908,2.8992,2.8993,2.8994,2.8994,2.8995,2.859,2.8588,2.8623,2.8639,2.8661,2.8681,2.8684,2.8716,2.8728,2.8752,2.878,2.879,2.8819,2.8854,2.8871,2.8878,2.8898,2.8891,2.8889,2.8887,2.8882,2.8957,2.8882,2.8883,2.8883,2.8883,2.8883,0,2.8502,2.8527,2.8541,2.8572,2.8584,2.8618,2.8645,2.8652,2.8661,2.8686,2.8701,2.8716,2.8731,2.8768,2.8786,2.8785,2.8802,2.8788,2.8789,2.8794,2.8862,2.8865,2.8774,2.8774,2.8774,2.8774,2.8774,2.8774,2.8457,2.8457,2.8484,2.8494,2.852,2.8532,2.8544,2.8562,2.8583,2.8599,2.8612,2.8637,2.8667,2.8688,2.8703,2.8713,2.8718,2.8699,2.8714,2.8778,2.8789,2.8799,2.8802,2.8699,2.8699,2.8646,2.8645,2.8645]}]]